[[{"header":{"parameterUnit":"m.s-1","parameterCategory":1,"la1":30.2992,"la2":30.254,"lo1":-89.0895,"lo2":-89.0443,"dy":0.0025,"dx":0.0025,"nx":19,"ny":19,"refTime":"2026-04-21T03:00:00:Z","depth":0,"parameterNumber":2,"parameterNumberName":"U-component_of_WINDS"},"data":[0,0,0,-3.2448,-3.245,-3.2539,-3.2539,-3.2659,-3.266,0,0,0,0,0,0,0,0,0,0,0,-3.2426,-3.2427,-3.2448,-3.2451,-3.2539,-3.2539,-3.2659,-3.266,0,0,0,0,0,0,0,0,0,0,0,-3.2426,-3.2427,-3.2428,-3.2451,-3.2539,-3.2539,-3.2658,-3.2589,0,0,0,0,0,0,0,0,0,0,-3.2502,-3.2486,-3.2427,-3.2428,-3.2451,-3.2539,-3.2539,-3.2586,-3.2593,-3.2621,0,-3.2648,0,-3.2656,-3.2668,-3.2669,0,0,0,-3.2447,-3.248,-3.25,-3.2429,-3.2452,-3.2539,-3.2498,-3.259,-3.2599,-3.2632,-3.265,-3.2654,-3.2658,-3.2669,-3.267,-3.2845,-3.2846,0,0,-3.2442,-3.2444,-3.2494,-3.2506,-3.2493,-3.2495,-3.2501,-3.2595,-3.2615,-3.265,-3.2657,-3.266,-3.267,-3.2671,-3.2844,-3.2846,0,0,0,-3.243,-3.2441,-3.2459,-3.2501,-3.2517,-3.2498,-3.2504,-3.261,-3.2616,-3.2658,-3.2661,-3.2671,-3.2672,-3.2843,-3.2845,-3.2895,0,0,0,-3.2427,-3.2434,-3.2457,-3.2459,-3.2515,-3.2565,-3.2518,-3.2609,-3.262,-3.2661,-3.2671,-3.2673,-3.2842,-3.2844,-3.2892,-3.2918,0,0,0,-3.2419,-3.2433,-3.2448,-3.2459,-3.2498,-3.2563,-3.2574,-3.2612,-3.2622,-3.2669,-3.2674,-3.2841,-3.2844,-3.2888,-3.2913,-3.2965,0,0,0,-3.2411,-3.2491,-3.2449,-3.254,-3.2497,-3.2595,-3.2573,-3.2646,-3.2692,-3.2671,-3.2842,-3.2845,-3.2887,-3.2909,-3.2961,-3.3008,-3.3028,0,0,-3.2514,-3.2504,-3.2557,-3.2522,-3.2628,-3.2581,-3.2694,-3.2733,-3.2735,-3.2808,-3.2813,-3.2893,-3.2912,-3.2964,-3.3142,-3.3158,0,0,0,-3.2591,-3.2629,-3.2657,-3.2701,-3.2734,-3.2764,-3.2786,-3.2801,-3.2863,-3.2774,-3.2926,-3.2938,-3.2968,-3.299,-3.3003,-3.3029,-3.2855,-3.2855,-3.2855,-3.2738,-3.2738,-3.2826,-3.2836,-3.2879,-3.2902,-3.2937,-3.296,-3.2946,-3.2982,-3.3003,-3.3111,-3.3138,-3.3148,-3.3174,-3.3029,-3.3029,-3.303,-3.303,-3.2888,-3.2942,-3.2922,-3.3001,-3.2999,-3.3065,-3.309,-3.3078,-3.3139,-3.3095,-3.3122,-3.3073,-3.3165,-3.3188,-3.3034,-3.3033,-3.3032,-3.3032,-3.3032,-3.2983,-3.3009,-3.3026,-3.3091,-3.314,-3.3148,-3.3207,-3.3204,-3.3201,-3.3227,-3.3249,-3.3248,-3.3245,-3.3238,-3.3239,-3.3239,-3.3239,-3.324,-3.324,-3.3075,-3.3093,-3.3143,-3.3186,-3.3214,-3.3251,-3.3275,-3.3303,-3.3332,-3.3325,-3.3325,-3.3307,-3.3175,-3.3141,-3.3246,-3.3245,-3.3244,-3.3243,-3.3243,-3.3224,-3.319,-3.3268,-3.3297,-3.3346,-3.3396,-3.3391,-3.3448,-3.347,-3.3499,-3.3477,-3.338,-3.3369,-3.3358,-3.333,-3.3477,-3.3477,-3.3477,-3.3477,-3.3303,-3.3298,-3.3378,-3.3423,-3.3468,-3.3472,-3.356,-3.358,-3.3595,-3.3609,-3.3588,-3.355,-3.354,-3.3535,-3.3521,-3.3494,-3.3679,-3.368,-3.368,-3.3395,-3.3394,-3.3469,-3.3485,-3.3523,-3.3557,-3.3639,-3.3692,-3.3702,-3.3688,-3.3619,-3.3611,-3.3551,-3.3532,-3.3514,-3.3491,-3.3443,0,0]},{"header":{"parameterUnit":"m.s-1","parameterCategory":1,"la1":30.2992,"la2":30.254,"lo1":-89.0895,"lo2":-89.0443,"dy":0.0025,"dx":0.0025,"nx":19,"ny":19,"refTime":"2026-04-21T03:00:00:Z","depth":0,"parameterNumber":3,"parameterNumberName":"V-component_of_WINDS"},"data":[0,0,0,4.0463,4.0465,4.0529,4.053,4.0615,4.0616,0,0,0,0,0,0,0,0,0,0,0,4.0449,4.0449,4.0463,4.0465,4.0529,4.053,4.0615,4.0616,0,0,0,0,0,0,0,0,0,0,0,4.0448,4.0449,4.045,4.0465,4.0529,4.053,4.0615,4.0565,0,0,0,0,0,0,0,0,0,0,4.0501,4.0493,4.0449,4.045,4.0466,4.0529,4.053,4.0562,4.0568,4.0588,0,4.061,0,4.0615,4.0622,4.0623,0,0,0,4.0461,4.0488,4.0502,4.045,4.0466,4.0529,4.0499,4.0565,4.0572,4.0596,4.0611,4.0614,4.0616,4.0623,4.0624,4.0762,4.0763,0,0,4.0457,4.0462,4.0497,4.0506,4.0499,4.0497,4.0501,4.0569,4.0585,4.0612,4.0616,4.0618,4.0624,4.0624,4.0761,4.0762,0,0,0,4.045,4.046,4.0472,4.0503,4.0514,4.0499,4.0504,4.0582,4.0586,4.0617,4.0619,4.0624,4.0625,4.076,4.0762,4.0807,0,0,0,4.0447,4.0455,4.047,4.0474,4.0513,4.0549,4.0515,4.0581,4.0588,4.0618,4.0624,4.0626,4.0759,4.0761,4.0804,4.0827,0,0,0,4.0443,4.0455,4.0466,4.0474,4.0502,4.0548,4.0556,4.0582,4.059,4.0623,4.0626,4.0759,4.0761,4.0801,4.0823,4.0865,0,0,0,4.0438,4.0505,4.0467,4.0542,4.0502,4.0578,4.0555,4.0611,4.0645,4.0625,4.0759,4.0761,4.08,4.082,4.0862,4.09,4.0917,0,0,4.0525,4.0516,4.0559,4.0527,4.0611,4.0567,4.0657,4.0683,4.0681,4.0734,4.0738,4.0805,4.0822,4.0864,4.1012,4.1026,0,0,0,4.0588,4.0619,4.0641,4.0675,4.0698,4.0718,4.073,4.0739,4.0785,4.071,4.0832,4.0842,4.0866,4.0884,4.0896,4.0915,4.077,4.077,4.077,4.0715,4.0711,4.0782,4.0786,4.0819,4.0831,4.0856,4.0871,4.0855,4.0885,4.09,4.0991,4.1012,4.102,4.1041,4.0921,4.0921,4.0921,4.0921,4.084,4.0882,4.0863,4.0925,4.0919,4.097,4.0984,4.0971,4.1017,4.0979,4.1,4.0957,4.1035,4.1053,4.0925,4.0924,4.0924,4.0923,4.0923,4.0921,4.0941,4.0953,4.1002,4.1039,4.104,4.1085,4.1078,4.1071,4.1092,4.1107,4.1106,4.1103,4.11,4.1101,4.1101,4.1101,4.1101,4.1102,4.1,4.1012,4.1052,4.1083,4.1104,4.113,4.1144,4.1163,4.1182,4.1173,4.1173,4.1154,4.1045,4.1017,4.1106,4.1105,4.1105,4.1104,4.1104,4.1124,4.1095,4.1157,4.1178,4.1213,4.1251,4.1242,4.1283,4.1298,4.132,4.1297,4.1218,4.1207,4.1198,4.1174,4.1299,4.1299,4.1299,4.1299,4.1192,4.1187,4.1248,4.1282,4.1315,4.1314,4.1381,4.1392,4.1398,4.1407,4.1388,4.1357,4.1348,4.1342,4.133,4.1307,4.1463,4.1464,4.1464,4.1267,4.1265,4.1325,4.1333,4.136,4.1383,4.1446,4.1484,4.1485,4.147,4.1413,4.1406,4.1356,4.134,4.1321,4.1303,4.1261,0,0]}]]